DateTimeUTC,F1_A11,F1_S11,BsB_S11,BsG_S11,BsR_S11,BbsB_S11,BbsG_S11,BbsR_S11,BaB_A11,BaG_A11,BaR_A11,Tu_S11,T_S11,Uu_S11,U_S11,P_S11,T1_A11
2021-01-29T10:00:00Z,00000200,21000000,,,,,,,-000.36,-000.05,-000.06,15.6,23.3,,00.0,0636.3,30.9
2021-01-29T10:01:00Z,00000200,21000000,,,,,,,0000.30,0000.25,0000.16,15.5,23.3,,00.0,0636.3,30.9
2021-01-29T10:02:00Z,00000200,21000000,,,,,,,0000.38,0000.40,0000.17,15.5,23.3,,00.0,0636.3,30.9
2021-01-29T10:03:00Z,00000200,61000000,,,,,,,0000.01,0000.48,0000.20,15.5,23.3,,00.0,0636.3,30.9
2021-01-29T10:04:00Z,00000200,41000000,0000.42,0000.06,-000.07,-000.09,-000.07,0000.13,-000.02,-000.36,0000.16,16.0,23.2,,00.0,0637.1,30.9
2021-01-29T10:05:00Z,00000200,01000000,0000.43,0000.43,-000.17,-000.15,-000.11,0000.27,0000.18,0000.88,0000.32,16.1,23.2,,00.0,0637.2,30.9
2021-01-29T10:06:00Z,00000200,01000000,-000.05,0000.41,-000.21,-000.06,0000.18,0000.13,0000.31,-000.12,0000.02,16.2,23.2,,00.0,0637.2,31.0
2021-01-29T10:07:00Z,00000200,01000000,0000.42,0000.35,-000.03,-000.09,0000.03,-000.07,0000.42,0000.08,-000.09,16.3,23.3,,00.0,0637.2,30.9
2021-01-29T10:08:00Z,00000200,01000000,0000.30,0000.03,-000.31,0000.04,0000.12,-000.28,0000.36,0000.39,0000.77,16.4,23.3,,00.0,0637.2,30.9
2021-01-29T10:09:00Z,00000200,01000000,-000.04,0000.07,-000.15,0000.05,0000.07,0000.16,0000.32,0000.27,-000.23,16.5,23.3,,00.0,0637.2,31.0
2021-01-29T10:10:00Z,00000200,01000000,0000.47,0000.31,-000.16,-000.03,0000.02,-000.08,-000.10,-000.08,-000.05,16.6,23.4,,00.0,0637.3,31.0
2021-01-29T10:11:00Z,00000200,01000000,0000.36,0000.42,0000.04,0000.17,0000.12,0000.12,0000.11,0000.59,0000.06,16.5,23.4,,00.0,0637.3,31.0
2021-01-29T10:12:00Z,00000200,01000000,0000.03,0000.28,-000.08,0000.24,0000.18,0000.10,0000.23,-000.00,-000.09,16.5,23.3,,00.0,0637.3,30.9
2021-01-29T10:13:00Z,00000200,01000000,-000.11,0000.13,0000.06,-000.33,0000.10,-000.10,0000.06,-000.30,0000.32,16.4,23.3,,00.0,0637.3,30.9
2021-01-29T10:14:00Z,00000200,01000000,0000.63,0000.37,0000.10,0000.28,0000.12,0000.09,-000.28,0000.24,0000.03,16.3,23.3,,00.0,0637.3,30.9
2021-01-29T10:15:00Z,00000200,01000000,0000.13,0000.39,0000.17,0000.31,0000.05,-000.06,-000.32,-000.50,-000.12,16.3,23.3,,00.0,0637.3,30.9
2021-01-29T10:16:00Z,00000200,01000000,0000.32,0000.20,-000.29,-000.17,0000.39,0000.09,0000.84,0000.40,0000.22,16.3,23.2,,00.0,0637.3,30.9
2021-01-29T10:17:00Z,00000200,01000000,0000.11,0000.21,-000.13,0000.22,-000.09,-000.03,0000.09,0000.23,0000.00,16.3,23.2,,00.0,0637.3,30.9
2021-01-29T10:18:00Z,00000200,01000000,0000.21,0000.24,0000.10,-000.22,0000.02,-000.08,-000.20,-000.01,0000.31,16.4,23.3,,00.0,0637.3,30.9
2021-01-29T10:19:00Z,00000200,01000000,0000.67,0000.25,-000.03,0000.14,0000.06,-000.02,0000.09,0000.42,-000.08,16.5,23.3,,00.0,0637.3,30.9
2021-01-29T10:20:00Z,00000200,01000000,0000.62,0000.19,-000.05,0000.12,0000.31,-000.05,0000.19,0000.16,-000.07,16.6,23.4,,00.0,0637.4,31.0
2021-01-29T10:21:00Z,00000200,01000000,0000.26,0000.53,-000.11,-000.12,0000.15,0000.11,0000.50,0000.17,0000.31,16.6,23.4,,00.0,0637.4,31.0
2021-01-29T10:22:00Z,00000200,01000000,0000.59,0000.18,-000.19,0000.48,0000.06,0000.20,-000.32,-000.54,-000.06,16.7,23.5,,00.0,0637.4,31.0
2021-01-29T10:23:00Z,00000200,01000000,0000.49,0000.14,-000.06,-000.20,0000.19,0000.21,0000.10,0000.49,0000.03,16.7,23.5,,00.0,0637.4,31.0
2021-01-29T10:24:00Z,00000200,01000000,-000.32,-000.05,0000.09,0000.07,-000.05,0000.26,0000.15,0000.09,0000.32,16.7,23.5,,00.0,0637.4,31.0
2021-01-29T10:25:00Z,00000200,01000000,0000.22,0000.21,-000.24,-000.05,0000.23,0000.19,-000.03,0000.06,-000.19,16.6,23.4,,00.0,0637.4,30.9
2021-01-29T10:26:00Z,00000200,01000000,0000.35,0000.50,0000.16,0000.40,0000.04,0000.20,0000.27,-000.30,0000.13,16.5,23.4,,00.0,0637.4,30.9
2021-01-29T10:27:00Z,00000200,01000000,0000.46,-000.08,0000.08,0000.13,0000.14,0000.10,-000.00,0000.57,0000.01,16.5,23.4,,00.0,0637.4,30.9
2021-01-29T10:28:00Z,00000200,01000000,0000.41,0000.56,-000.05,-000.29,-000.02,0000.16,0000.21,-000.41,0000.09,16.4,23.3,,00.0,0637.4,30.9
2021-01-29T10:29:00Z,00000200,01000000,-000.07,0000.33,0000.01,-000.23,0000.09,0000.08,0000.35,0000.06,0000.09,16.3,23.3,,00.0,0637.4,30.9
2021-01-29T10:30:00Z,00000200,01000000,0000.45,0000.51,-000.21,-000.19,0000.09,-000.04,-000.31,0000.32,-000.05,16.3,23.3,,00.0,0637.4,30.9
2021-01-29T10:31:00Z,00000200,01000000,-000.13,0000.33,-000.08,-000.37,0000.03,0000.03,0000.30,-000.19,0000.43,16.3,23.3,,00.0,0637.5,30.9
2021-01-29T10:32:00Z,00000200,01000000,-000.20,0000.16,-000.21,0000.09,0000.21,0000.09,0000.48,0000.80,0000.09,16.3,23.3,,00.0,0637.5,30.9
2021-01-29T10:33:00Z,00000200,01000000,0000.72,0000.14,-000.14,0000.38,0000.09,0000.05,0000.15,0000.04,0000.22,16.4,23.3,,00.0,0637.5,30.9
2021-01-29T10:34:00Z,00000200,01000000,0000.03,0000.21,0000.01,-000.61,-000.10,0000.00,-000.01,0000.11,0000.07,16.5,23.3,,00.0,0637.5,30.9
2021-01-29T10:35:00Z,00000200,01000000,0000.31,0000.08,-000.31,0000.39,0000.13,-000.12,0000.30,0000.39,0000.26,16.5,23.4,,00.0,0637.4,30.9
2021-01-29T10:36:00Z,00000200,01000000,0000.47,0000.28,0000.08,-000.04,0000.09,0000.26,0000.07,0000.15,0000.44,16.6,23.4,,00.0,0637.4,30.9
2021-01-29T10:37:00Z,00000200,01000000,0000.62,0000.31,0000.01,0000.12,0000.08,0000.02,-000.05,-000.36,-000.46,16.7,23.5,,00.0,0637.4,31.0
2021-01-29T10:38:00Z,00000200,01000000,0000.29,0000.08,0000.05,-000.35,-000.11,0000.09,0000.38,0000.17,0000.00,16.7,23.5,,00.0,0637.4,30.9
2021-01-29T10:39:00Z,00000200,01000000,0000.43,0000.18,0000.07,0000.03,0000.10,0000.11,-000.18,0000.38,0000.02,16.7,23.5,,00.0,0637.4,30.9
2021-01-29T10:40:00Z,00000200,01000000,-000.15,0000.32,-000.22,-000.48,0000.05,-000.08,0000.30,0000.33,0000.20,16.6,23.4,,00.0,0637.4,30.9
2021-01-29T10:41:00Z,00000200,01000000,0000.43,0000.30,-000.31,0000.40,0000.08,-000.17,0000.14,-000.37,-000.05,16.5,23.4,,00.0,0637.4,30.9
2021-01-29T10:42:00Z,00000200,01000000,-000.14,0000.13,0000.23,0000.46,0000.21,0000.07,0000.03,0000.11,-000.09,16.4,23.4,,00.0,0637.4,30.9
2021-01-29T10:43:00Z,00000200,01000000,0000.15,0000.02,-000.03,-000.25,0000.14,0000.02,0000.31,0000.13,0000.27,16.4,23.3,,00.0,0637.4,30.9
2021-01-29T10:44:00Z,00000200,01000000,0001.06,0000.25,-000.19,0000.02,0000.06,0000.15,0000.18,0000.16,-000.02,16.3,23.3,,00.0,0637.4,30.9
2021-01-29T10:45:00Z,00000200,01000000,-000.26,0000.40,-000.10,0000.02,0000.24,0000.08,-000.05,-000.19,0000.15,16.2,23.2,,00.0,0637.5,30.9
2021-01-29T10:46:00Z,00000200,01000000,0000.50,0000.27,-000.09,0000.09,0000.16,0000.12,0000.20,0000.40,0000.19,16.2,23.2,,00.0,0637.5,30.9
2021-01-29T10:47:00Z,00000200,01000000,0000.63,0000.16,0000.07,0000.02,-000.00,-000.03,0000.24,0000.19,0000.25,16.3,23.2,,00.0,0637.5,30.9
2021-01-29T10:48:00Z,00000200,01000000,0000.22,0000.24,-000.25,0000.32,-000.07,0000.04,0000.28,0000.30,0000.18,16.3,23.3,,00.0,0637.5,30.9
2021-01-29T10:49:00Z,00000200,01000000,0000.01,0000.57,0000.01,0000.08,-000.04,-000.06,0000.24,0000.15,0000.20,16.4,23.3,,00.0,0637.5,30.9
2021-01-29T10:50:00Z,00000200,01000000,-000.33,0000.29,-000.02,-000.18,0000.07,0000.14,-000.13,0000.10,-000.25,16.5,23.4,,00.0,0637.6,30.9
2021-01-29T10:51:00Z,00000200,01000000,-000.32,0000.42,-000.07,-000.06,0000.27,-000.01,-000.15,0000.16,0000.27,16.6,23.4,,00.0,0637.7,31.0
2021-01-29T10:52:00Z,00000200,01000000,0000.45,0000.25,-000.22,-000.28,0000.19,0000.04,0000.19,-000.04,0000.09,16.6,23.4,,00.0,0637.7,31.0
2021-01-29T10:53:00Z,00000200,01000000,0000.36,0000.31,-000.36,0000.01,0000.08,-000.04,-000.24,-000.32,-000.10,16.7,23.5,,00.0,0637.6,31.0
2021-01-29T10:54:00Z,00000200,01000000,0000.09,0000.26,-000.09,0000.15,-000.19,-000.04,-000.18,-000.51,-000.12,16.6,23.4,,00.0,0637.6,30.9
2021-01-29T10:55:00Z,00000200,01000000,0000.12,0000.36,0000.06,0000.01,-000.00,0000.01,0000.07,0000.43,-000.15,16.6,23.4,,00.0,0637.6,30.9
2021-01-29T10:56:00Z,00000200,01000000,0000.58,0000.29,-000.28,0000.08,0000.19,0000.06,0000.28,0000.22,0000.39,16.5,23.4,,00.0,0637.6,30.9
2021-01-29T10:57:00Z,00000200,41000000,,,,,,,0000.24,0000.12,0000.10,16.5,23.4,,00.0,0637.5,30.9
2021-01-29T10:58:00Z,00000200,61000000,,,,,,,0000.08,-000.14,-000.32,15.9,23.5,,00.0,0636.7,30.9
2021-01-29T10:59:00Z,00000200,21000000,,,,,,,-000.12,0000.22,-000.14,15.9,23.6,,00.0,0636.7,30.9
